Location: Queenborough
(51.4167°N, 0.7667°E)
Time: 23:12:28
(UTC+00:00)

Daily predictions for brighter satellites

Satellite Brightness Start Highest point End
(mag) Time Altitude Azimuth Time Altitude Azimuth Time Altitude Azimuth
SL-08 R/B 3.5 16:25:50 10° NNE 16:30:35 55° E 16:35:12 10° S
Cosmos 1606 4.3 16:30:04 10° ESE 16:32:22 16° E 16:34:41 10° NE
Cosmos 2061 Rocket 4.3 16:27:17 10° SSW 16:33:44 80° W 16:40:10 10° N
USA 276 2.6 16:31:38 10° WSW 16:34:43 55° SSE 16:37:47 10° E
ARGOS 4.4 16:31:42 10° E 16:35:32 20° NE 16:39:22 10° N
Okean O Rocket 3.1 16:35:25 10° E 16:38:12 16° NE 16:40:59 10° NNE
Cosmos 192 4.4 16:35:48 10° SSW 16:40:44 84° ESE 16:45:42 10° NNE
Cosmos 2360 Rocket 4.4 16:40:50 10° N 16:41:26 10° N 16:42:02 10° N
Meteor PRIRODA 3.5 16:39:19 10° SSE 16:42:58 77° ENE 16:46:38 10° N
CZ-4C R/B 3.5 16:41:47 10° NNE 16:45:56 80° WNW 16:49:50 10° SSW
NOSS 2-1 (E) 4.4 16:47:40 10° S 16:50:08 20° ESE 16:52:18 12° ENE
Cosmos 2221 3.6 16:46:59 10° SE 16:50:22 23° E 16:53:45 10° NE
ISS -3.1 16:48:32 10° SW 16:51:50 47° SSE 16:54:50 12° E
CZ-2C R/B 4.0 16:49:03 10° NE 16:52:29 17° E 16:55:52 10° SE
Cosmos 1992 Rocket 4.2 16:48:00 10° SSW 16:53:13 79° WNW 16:58:29 10° NNE
Cosmos 1340 Rocket 4.0 16:51:15 10° NNE 16:54:26 22° ENE 16:57:37 10° ESE
USA 267 3.3 16:47:54 10° ENE 16:54:29 85° NNW 17:01:02 10° WSW
Spot 1 4.2 16:50:16 10° NNE 16:54:43 74° ESE 16:59:25 10° S
USA 81 4.2 16:49:55 10° S 16:55:11 84° W 17:00:30 10° N
Cosmos 2322 Rocket 4.2 16:55:19 10° N 16:56:33 11° N 16:57:46 10° NNE
Nadezhda 4 Rocket 4.3 16:52:54 10° N 16:58:53 44° ENE 17:04:53 10° SE
deb Chang Zheng 4 4.5 16:55:32 10° ESE 16:59:08 27° ENE 17:02:47 10° N
USA 229 DEB 4.2 16:52:38 10° NW 16:59:23 45° NNE 17:06:38 10° E
YAOGAN 1 4.3 16:58:27 13° ENE 16:59:24 13° NE 17:01:29 10° NNE
USA 229 4.2 16:52:43 10° NW 16:59:29 45° NNE 17:06:43 10° E
AQUARIUS 4.2 16:55:21 10° SSE 16:59:45 58° ENE 17:04:11 10° N
RESURS DK-1 3.3 16:56:08 10° SW 17:00:06 45° NW 17:04:07 10° NNE
Lacrosse 5 rocket 1.6 16:57:00 10° W 17:00:40 52° NNW 17:03:54 14° NE
USA 306 3.9 16:57:04 10° SSW 17:00:53 32° SE 17:04:01 14° E
Cosmos 2333 Rocket 4.4 16:59:38 10° NNW 17:01:17 11° N 17:02:55 10° N
Cosmos 1271 Rocket 3.0 16:57:51 10° S 17:01:36 46° E 17:05:25 10° NNE
NOSS 3-4 (A) 4.4 16:59:29 10° W 17:05:05 40° NNW 17:11:07 11° NE
NOSS 3-4 (C) 4.4 16:59:35 10° W 17:05:11 40° NNW 17:11:13 11° NE
SMAP 3.0 17:02:09 10° SSE 17:06:48 78° ENE 17:11:29 10° NNW
Cosmos 1408 Rocket 3.8 17:02:49 10° N 17:06:58 43° ENE 17:11:07 10° SE
ATLAS 2AS CENTAUR R/B 3.3 17:00:19 10° WSW 17:08:07 65° NW 17:15:29 11° NE
Cosmos 1743 Rocket 4.4 17:05:03 10° N 17:08:47 27° ENE 17:12:29 10° SE
SL-16 R/B 4.1 17:06:55 10° N 17:09:04 12° NNE 17:11:13 10° NE
Cosmos 1697 Rocket 3.6 17:05:16 10° NNW 17:10:06 28° NE 17:14:22 12° E
CZ-4B DEB 4.2 17:04:40 10° SSE 17:10:10 69° ENE 17:15:40 10° NNW
Cosmos 1980 Rocket 3.5 17:06:00 10° NNW 17:10:10 20° NNE 17:12:43 15° ENE
Cosmos 2233 Rocket 4.4 17:05:20 10° SSW 17:11:26 66° WNW 17:17:38 10° N
H-2A R/B 2.2 17:09:31 10° SE 17:14:36 51° ENE 17:19:33 10° N
Cosmos 2237 Rocket 4.4 17:11:33 10° WNW 17:14:43 15° NNW 17:17:53 10° N
USA 307 3.7 17:11:58 10° SSW 17:15:55 37° SE 17:18:33 18° E
Cosmos 44 3.5 17:11:43 10° NW 17:16:32 47° NE 17:20:56 10° ESE
Cosmos 1513 Rocket 4.5 17:10:46 10° S 17:16:43 63° E 17:22:49 10° NNE
PAYLOAD B 4.2 17:11:52 10° SSE 17:17:23 63° ENE 17:22:57 10° N
Cosmos 1777 Rocket 4.2 17:12:51 10° NNW 17:18:08 78° WSW 17:23:25 10° SSE
ATLAS CENTAUR R/B 1.5 17:16:51 10° SSW 17:20:53 59° SE 17:23:56 19° NE
Lacrosse 5 2.7 17:16:46 10° WNW 17:21:44 52° SW 17:26:40 10° SE
Cosmos 2034 Rocket 4.2 17:16:26 10° SSE 17:22:15 45° E 17:28:04 10° NNE
NOSS 3-1 (A) 4.1 17:16:00 10° NW 17:22:54 56° NE 17:31:07 10° ESE
Cosmos 1939 Rocket 3.3 17:20:08 10° S 17:24:15 68° WSW 17:28:23 10° NNW
Cosmos 1603 4.5 17:20:47 10° SW 17:26:23 52° NW 17:32:02 10° NNE
Cosmos 1898 Rocket 4.1 17:22:14 10° NNW 17:27:03 34° NE 17:31:16 13° ESE
SL-16 R/B 4.1 17:23:16 10° W 17:27:36 22° NW 17:31:57 10° NNE
NOSS 3-1 (C) 4.0 17:20:50 10° NW 17:27:59 75° NE 17:36:31 10° SE
Okean 3 Rocket 4.0 17:23:30 10° NNW 17:28:03 68° W 17:32:30 10° S
Cosmos 1656 3.7 17:24:17 10° NNW 17:29:42 57° NE 17:35:10 10° SE
MOS 1-B Rocket 4.3 17:24:45 10° NNE 17:30:07 42° E 17:35:51 10° S
NOSS 2-1 (C) 2.9 17:27:37 10° SSW 17:30:48 55° SE 17:32:11 30° ENE
Cosmos 1072 Rocket 4.5 17:25:11 10° S 17:31:33 77° E 17:37:54 10° NNE
Cosmos 2084 4.2 17:28:20 10° NW 17:32:14 35° NNE 17:33:54 25° ENE
Cosmos 1862 4.1 17:29:22 10° NNW 17:33:15 53° W 17:37:08 10° S
Meteor 1-20 Rocket 4.4 17:28:57 10° N 17:34:35 50° ENE 17:40:14 10° SSE
CZ-2D R/B 3.1 17:31:56 10° SSE 17:35:47 81° ENE 17:39:39 10° NNW
GEOS 3 Rocket 3.6 17:30:47 10° SE 17:36:03 88° SW 17:41:17 10° NW
Cosmos 1461 2.8 17:33:05 10° SW 17:37:19 85° NW 17:39:49 23° NE
PSLV R/B 3.7 17:34:01 10° SSE 17:37:42 80° WSW 17:41:25 10° NNW
USA 308 3.3 17:33:48 10° SW 17:37:54 49° SSE 17:39:45 28° E
MOS 1-B 4.3 17:32:12 10° SSE 17:37:58 83° ENE 17:43:48 10° NNW
NOSS 2-1 (D) 2.7 17:36:49 10° SW 17:40:02 68° SE 17:41:11 36° ENE
Cosmos 1500 Rocket 3.6 17:36:07 10° N 17:40:33 55° ENE 17:44:55 10° SSE
SL-08 RB Rocket 4.2 17:36:37 10° SE 17:40:52 37° ENE 17:45:08 10° N
SJ 16-02 1.9 17:38:39 10° NNW 17:42:58 59° WSW 17:47:16 10° S
Cosmos 1943 4.4 17:44:49 10° WSW 17:50:01 37° NW 17:55:14 10° NNE
Cosmos 1634 Rocket 4.5 17:45:04 10° SSE 17:50:45 37° E 17:56:31 10° NNE
Cosmos 1805 Rocket 3.8 17:46:41 10° N 17:50:51 42° ENE 17:54:59 10° SE
CZ-4C R/B 3.4 17:46:47 10° NW 17:52:52 39° NNE 17:56:08 27° ENE
Cosmos 1842 Rocket 3.5 17:48:54 10° S 17:53:20 81° E 17:57:50 10° NNE
CZ-4B R/B 3.1 17:49:42 10° SSE 17:55:12 85° ENE 18:00:37 10° NNW
H-2A R/B 4.0 17:58:19 19° NNE 17:58:19 19° NNE 17:59:39 10° N
ATLAS 5 CENTAUR R/B 2.9 17:46:56 10° WNW 17:57:28 47° NNE 17:58:53 35° ENE
CZ-4 R/B 2.5 18:00:41 28° NNE 18:00:41 28° NNE 18:03:04 10° N
Cosmos 1833 Rocket 3.7 17:54:49 10° SSE 17:58:47 26° ESE 17:58:47 26° ESE
YAOGAN 3 4.4 17:56:56 10° SSE 18:01:17 76° ENE 18:05:39 10° NNW
Cosmos 2219 Rocket 4.4 18:00:27 10° N 18:01:21 10° N 18:02:15 10° NNE
Meteor 1-25 Rocket 4.0 18:00:55 10° N 18:06:30 77° ENE 18:12:04 10° SSE
Cosmos 2026 Rocket 3.9 18:01:04 10° N 18:07:16 65° ENE 18:13:20 10° SSE
Cosmos 1606 3.5 18:03:59 10° SSW 18:07:38 49° WNW 18:11:11 11° N
Cosmos 2195 Rocket 4.3 18:02:26 10° N 18:08:35 76° E 18:14:45 10° SSE
USA 305 2.8 18:04:32 10° WSW 18:08:46 75° SSE 18:09:32 57° E
Sich 1 3.3 18:05:45 10° N 18:09:17 46° NE 18:09:17 46° NE
USA 276 2.4 18:07:31 10° W 18:10:26 62° SSW 18:10:26 62° SSW
COSMO-SKYMED 1 2.4 18:11:30 33° NNE 18:13:25 75° ESE 18:17:44 10° S
Okean O Rocket 1.6 18:09:31 10° SSE 18:13:58 82° WSW 18:18:28 10° NNW
ARGOS 3.1 18:09:44 10° SSE 18:15:10 86° WSW 18:20:38 10° NNW
Spot 2 4.4 18:12:24 10° SSE 18:17:24 64° ENE 18:22:30 10° N
ATLAS CENTAUR R/B 3.1 18:10:23 10° SSW 18:18:35 40° SE 18:19:17 38° SE
Cosmos 1937 Rocket 3.5 18:14:36 10° NNW 18:19:53 59° ENE 18:21:06 47° ESE
ERBS 3.6 18:17:52 10° SW 18:19:49 31° SSW 18:19:49 31° SSW
Meteor 2-16 Rocket 4.5 18:17:17 10° N 18:23:14 51° ENE 18:25:15 37° ESE
Helios 1B 4.5 18:23:37 37° NNE 18:25:19 85° WNW 18:29:39 10° SSW
Cosmos 2221 3.7 18:23:38 10° SW 18:27:41 42° WNW 18:31:47 10° N
Cosmos 2360 Rocket 4.1 18:24:55 10° N 18:27:21 15° NNE 18:27:21 15° NNE
ISS -2.9 18:25:10 10° W 18:27:49 51° W 18:27:49 51° W
Meteor 1-5 Rocket 4.5 18:22:46 10° N 18:28:35 49° ENE 18:28:37 49° ENE
Cosmos 1763 Rocket 3.5 18:24:08 10° S 18:28:45 55° SE 18:28:45 55° SE
Cosmos 1340 Rocket 4.0 18:27:13 10° NNW 18:31:05 43° W 18:34:55 10° SSW
CZ-2C R/B 2.6 18:28:53 14° NNE 18:33:29 81° WNW 18:38:40 10° SSW
NOSS 2-2 (C) 4.2 18:29:32 10° NW 18:34:12 56° NE 18:34:24 56° NE
Cosmos 1933 4.0 18:30:28 10° S 18:33:24 47° S 18:33:24 47° S
YAOGAN 1 2.8 18:35:37 58° N 18:35:37 58° N 18:39:10 10° NNW
Meteor 2-21 4.3 18:30:05 10° N 18:36:16 90° WSW 18:42:20 10° S
USA 267 3.5 18:35:05 40° NE 18:37:16 57° N 18:43:38 10° W
Cosmos 2369 3.6 18:31:58 10° NNW 18:37:41 65° NE 18:38:07 63° E
Landsat 5 3.5 18:38:53 80° SW 18:38:53 80° SW 18:42:52 10° SSW
NOSS 2-1 (E) 4.3 18:37:09 10° WSW 18:39:36 36° WNW 18:39:36 36° WNW
Feng Yun 1-1 Rocket 4.4 18:34:20 10° SSE 18:40:17 80° WSW 18:46:14 10° NNW
Cosmos 990 Rocket 4.5 18:35:09 10° NNW 18:40:17 59° WSW 18:45:22 10° S
Lacrosse 5 rocket 2.6 18:36:43 10° WNW 18:39:29 32° NNW 18:39:29 32° NNW
USA 306 3.1 18:36:13 10° WSW 18:40:01 70° W 18:40:01 70° W
Cosmos 2322 Rocket 3.9 18:38:39 10° NNW 18:41:19 19° NNE 18:41:19 19° NNE
Cosmos 858 Rocket 4.4 18:42:24 10° NNW 18:47:45 86° ENE 18:48:00 81° SE
Cosmos 2333 Rocket 4.3 18:45:19 10° N 18:47:22 14° N 18:47:22 14° N
USA 229 DEB 4.0 18:43:40 10° NW 18:50:56 76° SW 18:54:57 31° SSE
USA 229 4.0 18:43:46 10° NW 18:51:02 77° SW 18:54:58 32° SSE
H-2A R/B 4.0 18:49:46 10° SSW 18:54:16 28° W 18:58:41 10° NW
Cosmos 1697 Rocket 2.8 18:49:00 10° NNW 18:54:37 73° WSW 18:56:10 48° S
SL-16 R/B 3.7 18:50:21 10° NNW 18:53:08 23° N 18:53:08 23° N
Cosmos 1980 Rocket 2.3 18:49:34 10° NNW 18:54:31 61° NNE 18:54:31 61° NNE
USA 307 3.7 18:51:20 10° WSW 18:54:34 50° W 18:54:34 50° W
Cosmos 372 Rocket 4.5 18:51:08 10° NNW 18:55:00 50° N 18:55:00 50° N
COSMOS 2406 4.2 18:54:05 10° S 18:57:17 33° S 18:57:17 33° S
ATLAS CENTAUR R/B 3.0 18:56:15 10° W 19:00:03 31° NNW 19:00:03 31° NNW
ATLAS 2AS CENTAUR R/B 3.9 18:53:28 10° WNW 19:00:26 35° NNW 19:02:55 28° NNE
Meteor 1-26 Rocket 4.3 18:55:14 10° SSW 19:01:09 88° WNW 19:02:35 55° N
Cosmos 2278 4.3 18:59:17 10° NNW 19:03:22 44° N 19:03:22 44° N
Cosmos 2142 Rocket 4.4 18:58:59 10° S 19:13:45 - N 19:04:23 70° SSE
Cosmos 1898 Rocket 4.4 19:04:16 10° NW 19:09:18 46° WSW 19:11:39 28° SSW
Meteor 1-14 Rocket 4.2 19:03:38 10° NNW 19:09:23 81° W 19:09:24 81° WSW
NOSS 3-1 (A) 4.5 19:06:53 10° NW 19:14:09 59° SW 19:19:13 25° SSE
Cosmos 2279 Rocket 4.4 19:23:25 10° SSW 19:38:21 - N 19:28:11 54° SW
CZ-4 R/B 4.1 19:36:41 17° NW 19:36:41 17° NW 19:37:52 10° NW
CZ-4C R/B 2.9 19:35:16 10° NW 19:41:21 72° NNW 19:41:21 72° NNW
Cosmos 1833 Rocket 4.0 19:37:19 10° SW 19:40:32 35° SW 19:40:32 35° SW
USA 267 4.4 20:22:26 38° NW 20:22:26 38° NW 20:26:19 10° WNW
